カタログに戻る

IRIDIUM 33 DEB

運用中PO
NORAD 37136·DEBRIS·🇺🇸 United States

打ち上げ Sep 14, 1997 から Baikonur Cosmodrome

Loading…

次のパス (今後24時間)

TLE

経年Source: Space-Track

元期: Sep 8, 2026, 04:29 UTC

1 37136U 97051XG  26251.18707864  .00000861  00000-0  32633-3 0  9994
2 37136  86.1720 218.9392 0074743 198.6623 161.1827 14.28474092683442

AllMySatでIRIDIUM 33 DEBをリアルタイム追跡

Download on the App Store